Home > Weather > Niigata > Past weeks

Flag for Japan Past Weather in Niigata, Japan — Yesterday and Last 2 Weeks

Now
79 °F

Warm.


Feels Like: 82 °F
Forecast: 78 / 87 °F
Wind: 6 mph from South

Location: Niigata

Current Time: Jul 31, 2016 at 5:45:24 AM

Latest Report: Jul 31, 2016 at 5:00 AM


Visibility: N/A

Pressure: 29.90 "Hg

Humidity: 74%

Dew Point: 70 °F

Location of NiigataLocation

Past Weather in Niigata — Graph

°F

Niigata Temperature Yesterday

Maximum temperature yesterday: 89 °F (at 10:00 AM)
Minimum temperature yesterday: 79 °F (at 5:00 AM)
Average temperature yesterday: 83 °F

High & Low Weather Summary for the Past Weeks

 TemperatureHumidityPressure
High90 °F (Jul 28, 3:00 PM)98% (Jul 27, 2:00 AM)29.96 "Hg (Jul 27, 2:00 AM)
Low68 °F (Jul 23, 5:00 AM)49% (Jul 24, 11:00 AM)29.64 "Hg (Jul 16, 3:00 AM)
Average78 °F75%29.85 "Hg
* Reported Jul 16 3:00 AM — Jul 31 3:00 AM, Niigata, Weather by CustomWeather, © 2016

Note: Actual official high and low records may vary slightly from our data, if they occured in-between our weather recording intervals... More about our weather records

Advertising

Niigata Weather History for the Previous 24 Hours

Scroll right to see more
 ConditionsComfort  
Time TempWeatherWind HumidityBarometerVisibility
3:00 AM
Sun, Jul 31
80 °FPassing clouds.6 mph76%29.88 "Hg12 mi
2:00 AM80 °FWarm.6 mph79%29.87 "HgN/A
1:00 AM81 °FWarm.6 mph76%29.88 "HgN/A
12:00 AM82 °FWarm.2 mph79%29.88 "HgN/A
11:00 PM
Sat, Jul 30
82 °FWarm.5 mph80%29.89 "HgN/A
10:00 PM81 °FWarm.5 mph80%29.90 "HgN/A
9:00 PM81 °FPassing clouds.5 mph81%29.90 "Hg12 mi
8:00 PM82 °FWarm.2 mph77%29.90 "HgN/A
7:00 PM83 °FWarm.5 mph79%29.90 "HgN/A
6:00 PM85 °FPassing clouds.5 mph71%29.90 "Hg16 mi
5:00 PM85 °FWarm.5 mph69%29.89 "HgN/A
4:00 PM85 °FWarm.8 mph70%29.89 "HgN/A
3:00 PM87 °FOvercast.6 mph68%29.88 "Hg16 mi
2:00 PM88 °FHot.7 mph66%29.89 "HgN/A
1:00 PM87 °FWarm.7 mph70%29.90 "HgN/A
12:00 PM89 °FPartly sunny.5 mph67%29.91 "Hg12 mi
11:00 AM88 °FHot.7 mph59%29.92 "HgN/A
10:00 AM89 °FHot.5 mph59%29.92 "HgN/A
9:00 AM86 °FOvercast.6 mph67%29.92 "Hg12 mi
8:00 AM85 °FWarm.7 mph70%29.92 "HgN/A
7:00 AM82 °FWarm.7 mph75%29.92 "HgN/A
6:00 AM79 °FPassing clouds.2 mph84%29.91 "Hg9 mi
5:00 AM79 °FWarm.No wind84%29.90 "HgN/A
Weather by CustomWeather, © 2016

See weather overviewHow to use our weather pages